This is the latest recevied weather packets stored in our database for station/object KC9MWQ-13. If no packets are shown the sender has not sent any weather packets the latest 10 day(s).
| Time | Temp. | Humidity | Pressure | Rain* | Wind** | Luminosity | Snow |
|---|---|---|---|---|---|---|---|
| 1777965093 | 13.33° C | 99% | 1005.1 hPa | 0 mm | - | 0 W/m² | - |
| 1777964790 | 13.33° C | 99% | 1005.4 hPa | 0 mm | - | 0 W/m² | - |
| 1777964486 | 13.33° C | 99% | 1005.5 hPa | 0 mm | - | 0 W/m² | - |
| 1777964182 | 13.33° C | 99% | 1005.2 hPa | 0 mm | - | 0 W/m² | - |
| 1777963879 | 13.33° C | 99% | 1004.8 hPa | 1.27 mm | - | 0 W/m² | - |
| 1777963576 | 13.33° C | 99% | 1005 hPa | 3.05 mm | - | 0 W/m² | - |
| 1777963274 | 13.33° C | 99% | 1005.2 hPa | 6.1 mm | - | 0 W/m² | - |
| 1777962971 | 13.33° C | 99% | 1005.5 hPa | 6.1 mm | - | 0 W/m² | - |
| 1777962667 | 13.33° C | 99% | 1006 hPa | 4.83 mm | - | 0 W/m² | - |
| 1777962364 | 13.33° C | 99% | 1006.3 hPa | 3.05 mm | - | 0 W/m² | - |
| 1777962061 | 13.33° C | 99% | 1006.8 hPa | 4.32 mm | - | 0 W/m² | - |
| 1777961758 | 13.33° C | 99% | 1006.7 hPa | 7.87 mm | - | 0 W/m² | - |
| 1777961456 | 13.33° C | 99% | 1006.8 hPa | 7.87 mm | - | 0 W/m² | - |
| 1777961153 | 13.33° C | 99% | 1007.1 hPa | 7.87 mm | - | 0 W/m² | - |
| 1777960850 | 13.33° C | 99% | 1007.3 hPa | 7.87 mm | - | 0 W/m² | - |
| 1777960545 | 13.89° C | 99% | 1007.5 hPa | 4.32 mm | - | 0 W/m² | - |
| 1777960242 | 13.89° C | 98% | 1007.1 hPa | 1.78 mm | - | 0 W/m² | - |
| 1777959939 | 13.89° C | 98% | 1006.8 hPa | 3.05 mm | - | 0 W/m² | - |
| 1777959638 | 13.89° C | 97% | 1006.8 hPa | 3.05 mm | - | 0 W/m² | - |
| 1777959334 | 13.89° C | 96% | 1006.8 hPa | 3.05 mm | - | 0 W/m² | - |
| 1777959031 | 14.44° C | 95% | 1007.1 hPa | 4.32 mm | - | 0 W/m² | - |
| 1777958728 | 14.44° C | 94% | 1006.9 hPa | 6.1 mm | - | 0 W/m² | - |
| 1777958426 | 15° C | 92% | 1007 hPa | 4.83 mm | - | 0 W/m² | - |
| 1777958122 | 15° C | 89% | 1006.8 hPa | 1.78 mm | - | 0 W/m² | - |
| 1777957820 | 15.56° C | 88% | 1006.6 hPa | 0 mm | - | 0 W/m² | - |
* Rain latest hour (hover to see other rain measurements)
** Current wind speed in m/s (hover to see current wind gust speed)